CZ-6A DEB, 60710

Orbit data source: Space-Track

CZ-6A DEB, 60710 is space debris in LEO originally from a launch on Tue, 06 Aug 2024 UTC launched from the Taiyaun Space Center, China (TSC). Debris objects in space refer to the collection of defunct objects orbiting the Earth. Examples of debris include non-operational satellites, rocket bodies, and fragments generated from explosions, collisions, or faulty payload assembly.

Loading next visibility...
Identifier
60710, 2024-140DP
Orbit
LEO
Country
Flag of CNCN / PRC
Related business
Manufacturer
SAST
Mission
Spacecraft
Bus & Motor
Unknown
Mass
Unknown
Launch date (UTC)
2024-08-06 (2 years ago)
Launch vehicle
Unknown
Launch site
Taiyaun Space Center, China (TSC)
Object type
Payload
Rocket body
Debris
Shape & HBR
Unknown shape, 0.3 m
Radar Cross Section
Medium (>0.1 m² and <1 m²)

Expand to show TLE details & history
Last TLE update: 12 hours ago

TLE from 12 hours ago
0 CZ-6A DEB
1 60710U 24140DP  26171.33450912  .00000221  00000-0  96634-4 0  9996
2 60710  89.2080 290.8630 0044560 162.9310 197.3391 14.19852932 96082
Epoch: 2026-06-20T08:01Z
TLE epoch observation values (Epoch: 2026-06-20T08:01:41.587Z)
Latitude
-0.00008°
Longitude
-98.1109°
Altitude
859.565 km
Speed
7.407 km/s
True Right ascension
19h 23m 27s
True Declination
0° 00' 00"
Sunlit
Object was in full shadow at epoch
Visualization orbit readout
Latitude
Unknown
Longitude
Unknown
Altitude
Unknown
Speed
Unknown
Apparent Right ascension
Unknown
Apparent Declination
Unknown
Sunlit
N/A
Visualization observer readout
Local Sidereal Time
07:19:43
Azimuth
Unknown
Elevation
Unknown
Doppler factor
Unknown
Orbital elements
Apogee altitude
854.888 km
Perigee altitude
790.713 km
Semi-major axis
7,200.938 km
Eccentricity
0.00446
Inclination
89.208°
RAAN
290.863°
Arg. of periapsis
162.931°
True anomaly
197.18773°
Mean anomaly
197.3391°
Eccentric anomaly
197.26333°
Mean motion
3.55189 °/min
Orbital period
101.35 mins
BSTAR
0.000096634
Loading maneuver chart data...
Computing Atmospheric mass density...
Loading historical data...
Loading historical data...
Loading historical data...
Loading historical data...
Loading historical data...
Loading historical data...
Loading historical data...

Documentation

Showing up to 5 results
|